Weather in Mikheyevo

Russia / Kaluga Oblast     54°50′03″N   36°19′47″E
temp.,
°C
wind,
m/s
gust,
m/s
humid.,
%
clouds,
%
prec.,
mm/h
press.,
hPa
HPBL,
m
23 june, wed
wed2300:00+21sse23805 0.0 102024
03:00+19se22867 0.0 102115
06:00+21ese22812 0.0 102139
09:00+26ese23615 0.0 1021392
12:00+30se34464 0.0 10211437
15:00+31sse33430 0.0 10211596
18:00+30se23570 0.0 1020331
21:00+23sse22750 0.0 102117
24 june, thu
thu2400:00+21se22863 0.0 102116
03:00+19sse11875 0.0 102111
06:00+22ese11830 0.0 102135
09:00+26sse12670 0.0 1021425
12:00+30ssw23515 0.0 10201374
15:00+31sw22480 0.0 10191900
18:00+30sw23614 0.0 1019455
21:00+24sse22780 0.0 101921
25 june, fri
fri2500:00+22s34900 0.0 101853
03:00+21s22925 1.7 101817
06:00+22ssw23915 0.0 101887
09:00+27s22735 0.0 1018374
12:00+31s22500 0.0 10171566
15:00+32s22454 0.0 10172295
18:00+29se356155 0.0 1014473
21:00+17nnw2596100 3.4 1017124
26 june, sat
sat2600:00+18ene3392100 0.2 101650
03:00+18se1293100 0.2 101513
06:00+20ssw1291100 0.0 101593
09:00+24wsw22743 0.0 1015392
12:00+29sw115822 0.0 1014990
15:00+31ssw23495 0.0 10131815
18:00+29sw34596 0.0 1012316
21:00+20wsw2292100 0.9 101327
27 june, sun
sun2700:00+19ene118660 0.1 101311
03:00+18sse118889 0.4 101311
06:00+20s2390100 0.6 101386
09:00+25s23759 0.6 1013347
12:00+30s34566 0.0 10131231
15:00+32ssw344731 0.0 10122031
18:00+30wsw236149 0.0 1011511
21:00+19wnw4599100 15.4 1013150